| time (UTC) | temp F | wind direction | speed MPH | gust MPH | rain 1hr in | rain 24hr in | rain mn in | humidity % | barometer mb |
| 20260904083015 | 67 | 179 | 1.0 | 5.0 | 0.00 | 0.37 | 0.01 | 95 | 1013.9 |
| 20260904081515 | 67 | 168 | 1.0 | 4.0 | 0.00 | 0.37 | 0.01 | 95 | 1014.0 |
| 20260904080011 | 67 | 153 | 2.0 | 3.0 | 0.00 | 0.37 | 0.01 | 95 | 1013.8 |
| 20260904074516 | 67 | 155 | 1.0 | 6.0 | 0.00 | 0.37 | 0.01 | 95 | 1013.8 |
| 20260904073009 | 67 | 146 | 2.0 | 4.0 | 0.00 | 0.37 | 0.01 | 95 | 1013.7 |
| 20260904071509 | 67 | 182 | 0.0 | 1.0 | 0.00 | 0.37 | 0.01 | 95 | 1013.6 |
| 20260904070008 | 67 | 182 | 0.0 | 3.0 | 0.00 | 0.37 | 0.01 | 95 | 1013.6 |
| 20260904064507 | 67 | 145 | 0.0 | 2.0 | 0.00 | 0.37 | 0.01 | 95 | 1013.6 |
| 20260904063013 | 67 | 145 | 0.0 | 0.0 | 0.00 | 0.37 | 0.01 | 94 | 1013.6 |
| 20260904061513 | 68 | 145 | 0.0 | 0.0 | 0.01 | 0.37 | 0.01 | 95 | 1013.6 |
| 20260904060007 | 68 | 145 | 0.0 | 0.0 | 0.01 | 0.37 | 0.01 | 94 | 1014.0 |
| 20260904054600 | 68 | 145 | 0.0 | 0.0 | 0.01 | 0.37 | 0.01 | 94 | 1014.1 |
| 20260904053101 | 68 | 145 | 0.0 | 0.0 | 0.01 | 0.37 | 0.01 | 94 | 1014.6 |
| 20260904051556 | 69 | 145 | 0.0 | 0.0 | 0.00 | 0.36 | 0.00 | 94 | 1015.0 |
| 20260904050112 | 69 | 145 | 0.0 | 6.0 | 0.00 | 0.36 | 0.00 | 94 | 1015.4 |
| 20260904044556 | 69 | 182 | 0.0 | 0.0 | 0.36 | 0.36 | 0.00 | 93 | 1015.3 |
| 20260904043050 | 69 | 182 | 0.0 | 0.0 | 0.36 | 0.36 | 0.00 | 93 | 1015.5 |
| 20260904041550 | 69 | 165 | 2.0 | 5.0 | 0.36 | 0.36 | 0.00 | 92 | 1015.4 |
| 20260904040045 | 71 | 164 | 0.0 | 4.0 | 0.36 | 0.36 | 0.00 | 89 | 1015.8 |
| 20260904034555 | 73 | 26 | 1.0 | 8.0 | 0.00 | 0.00 | 0.00 | 82 | 1016.0 |
| 20260904033043 | 74 | 35 | 3.0 | 11.0 | 0.00 | 0.00 | 0.00 | 82 | 1015.2 |
| 20260904031544 | 74 | 33 | 5.0 | 15.0 | 0.00 | 0.00 | 0.00 | 87 | 1015.0 |
| 20260904030043 | 73 | 173 | 3.0 | 6.0 | 0.00 | 0.00 | 0.00 | 90 | 1014.7 |
| 20260904024545 | 73 | 144 | 3.0 | 6.0 | 0.00 | 0.00 | 0.00 | 91 | 1014.7 |
| 20260904023043 | 74 | 151 | 0.0 | 3.0 | 0.00 | 0.00 | 0.00 | 90 | 1015.0 |
| 20260904021539 | 74 | 143 | 3.0 | 6.0 | 0.00 | 0.00 | 0.00 | 90 | 1014.3 |
| 20260904020045 | 74 | 191 | 3.0 | 6.0 | 0.00 | 0.00 | 0.00 | 91 | 1014.5 |
| 20260904014539 | 74 | 133 | 2.0 | 4.0 | 0.00 | 0.00 | 0.00 | 90 | 1014.6 |
| 20260904013038 | 74 | 142 | 1.0 | 3.0 | 0.00 | 0.00 | 0.00 | 90 | 1014.4 |
| 20260904011537 | 75 | 172 | 1.0 | 4.0 | 0.00 | 0.00 | 0.00 | 89 | 1013.9 |
| 20260904010042 | 75 | 176 | 2.0 | 5.0 | 0.00 | 0.00 | 0.00 | 89 | 1013.8 |
| 20260904004538 | 76 | 166 | 2.0 | 6.0 | 0.00 | 0.00 | 0.00 | 88 | 1013.7 |
| 20260904003036 | 76 | 148 | 3.0 | 6.0 | 0.00 | 0.00 | 0.00 | 89 | 1013.7 |
| 20260904001535 | 76 | 148 | 2.0 | 3.0 | 0.00 | 0.00 | 0.00 | 89 | 1013.9 |
| 20260904000035 | 77 | 333 | 0.0 | 2.0 | 0.00 | 0.00 | 0.00 | 88 | 1014.0 |
| 20260903234533 | 78 | 333 | 0.0 | 1.0 | 0.00 | 0.00 | 0.00 | 85 | 1014.0 |
| 20260903233036 | 80 | 333 | 0.0 | 1.0 | 0.00 | 0.00 | 0.00 | 84 | 1013.9 |
| 20260903231537 | 82 | 333 | 0.0 | 0.0 | 0.00 | 0.00 | 0.00 | 79 | 1013.9 |
| 20260903230038 | 84 | 333 | 0.0 | 0.0 | 0.00 | 0.00 | 0.00 | 76 | 1013.5 |
| 20260903224532 | 84 | 333 | 0.0 | 0.0 | 0.00 | 0.00 | 0.00 | 71 | 1013.4 |
| 20260903223034 | 85 | 333 | 1.0 | 2.0 | 0.00 | 0.00 | 0.00 | 66 | 1013.0 |
| 20260903221538 | 86 | 344 | 0.0 | 0.0 | 0.00 | 0.00 | 0.00 | 66 | 1012.8 |
| 20260903220054 | 85 | 344 | 0.0 | 3.0 | 0.00 | 0.00 | 0.00 | 67 | 1012.7 |
| 20260903214529 | 84 | 171 | 0.0 | 2.0 | 0.00 | 0.00 | 0.00 | 75 | 1012.8 |
| 20260903213030 | 83 | 160 | 1.0 | 3.0 | 0.00 | 0.00 | 0.00 | 75 | 1012.6 |
| 20260903211527 | 84 | 360 | 0.0 | 2.0 | 0.00 | 0.00 | 0.00 | 73 | 1012.9 |
| 20260903210026 | 86 | 295 | 0.0 | 2.0 | 0.00 | 0.00 | 0.00 | 63 | 1013.0 |
| 20260903204525 | 87 | 289 | 1.0 | 2.0 | 0.00 | 0.00 | 0.00 | 61 | 1013.0 |
| 20260903203025 | 88 | 198 | 0.0 | 3.0 | 0.00 | 0.00 | 0.00 | 56 | 1013.4 |
| 20260903201524 | 90 | 328 | 1.0 | 4.0 | 0.00 | 0.00 | 0.00 | 56 | 1013.7 |
| 20260903200037 | 90 | 344 | 1.0 | 4.0 | 0.00 | 0.00 | 0.00 | 58 | 1013.5 |
| 20260903194533 | 89 | 332 | 1.0 | 6.0 | 0.00 | 0.00 | 0.00 | 57 | 1013.9 |
| 20260903193015 | 88 | 337 | 1.0 | 5.0 | 0.00 | 0.00 | 0.00 | 60 | 1014.2 |
| 20260903191518 | 88 | 341 | 0.0 | 3.0 | 0.00 | 0.00 | 0.00 | 61 | 1014.3 |
| 20260903190012 | 89 | 317 | 0.0 | 4.0 | 0.00 | 0.00 | 0.00 | 60 | 1014.4 |
| 20260903184511 | 88 | 341 | 1.0 | 4.0 | 0.00 | 0.00 | 0.00 | 59 | 1014.7 |
| 20260903183015 | 88 | 156 | 0.0 | 4.0 | 0.00 | 0.00 | 0.00 | 59 | 1014.6 |
| 20260903181506 | 87 | 279 | 2.0 | 7.0 | 0.00 | 0.00 | 0.00 | 61 | 1014.9 |
| 20260903180005 | 89 | 331 | 1.0 | 4.0 | 0.00 | 0.00 | 0.00 | 58 | 1014.9 |
| 20260903174503 | 87 | 279 | 2.0 | 5.0 | 0.00 | 0.00 | 0.00 | 60 | 1015.1 |
| 20260903173002 | 87 | 287 | 0.0 | 5.0 | 0.00 | 0.00 | 0.00 | 61 | 1015.2 |
| 20260903171500 | 87 | 179 | 1.0 | 6.0 | 0.00 | 0.00 | 0.00 | 62 | 1015.1 |
| 20260903170100 | 88 | 166 | 0.0 | 4.0 | 0.00 | 0.00 | 0.00 | 60 | 1015.2 |
| 20260903164557 | 86 | 310 | 0.0 | 4.0 | 0.00 | 0.00 | 0.00 | 62 | 1015.5 |
| 20260903163053 | 85 | 331 | 0.0 | 4.0 | 0.00 | 0.00 | 0.00 | 66 | 1015.6 |
| 20260903161609 | 85 | 302 | 1.0 | 5.0 | 0.00 | 0.00 | 0.00 | 66 | 1015.8 |
| 20260903160051 | 85 | 311 | 1.0 | 4.0 | 0.00 | 0.00 | 0.00 | 66 | 1016.1 |
| 20260903154550 | 85 | 17 | 1.0 | 9.0 | 0.00 | 0.00 | 0.00 | 65 | 1016.1 |
| 20260903153048 | 85 | 355 | 1.0 | 3.0 | 0.00 | 0.00 | 0.00 | 67 | 1016.1 |
| 20260903151546 | 84 | 306 | 1.0 | 5.0 | 0.00 | 0.00 | 0.00 | 67 | 1016.1 |
| 20260903150043 | 83 | 298 | 0.0 | 4.0 | 0.00 | 0.00 | 0.00 | 68 | 1016.2 |
| 20260903144541 | 83 | 171 | 0.0 | 3.0 | 0.00 | 0.00 | 0.00 | 71 | 1016.2 |
| 20260903143041 | 81 | 163 | 3.0 | 5.0 | 0.00 | 0.00 | 0.00 | 73 | 1016.2 |
| 20260903141532 | 80 | 155 | 0.0 | 3.0 | 0.00 | 0.00 | 0.00 | 79 | 1016.2 |
| 20260903140028 | 77 | 157 | 0.0 | 2.0 | 0.00 | 0.00 | 0.00 | 84 | 1016.2 |
| 20260903134527 | 75 | 157 | 0.0 | 2.0 | 0.00 | 0.00 | 0.00 | 87 | 1016.3 |
| 20260903133020 | 74 | 157 | 0.0 | 0.0 | 0.00 | 0.00 | 0.00 | 88 | 1016.4 |
| 20260903131521 | 73 | 157 | 0.0 | 2.0 | 0.00 | 0.00 | 0.00 | 90 | 1016.5 |
| 20260903130012 | 72 | 157 | 0.0 | 0.0 | 0.00 | 0.00 | 0.00 | 91 | 1016.6 |
| 20260903124507 | 71 | 157 | 1.0 | 3.0 | 0.00 | 0.00 | 0.00 | 92 | 1016.7 |
| 20260903123003 | 70 | 151 | 2.0 | 4.0 | 0.00 | 0.00 | 0.00 | 93 | 1016.7 |
| 20260903121501 | 69 | 158 | 0.0 | 2.0 | 0.00 | 0.00 | 0.00 | 94 | 1016.9 |
| 20260903114600 | 68 | 151 | 0.0 | 2.0 | 0.00 | 0.00 | 0.00 | 94 | 1016.8 |
| 20260903113055 | 67 | 155 | 0.0 | 3.0 | 0.00 | 0.00 | 0.00 | 94 | 1016.7 |
| 20260903111553 | 67 | 155 | 0.0 | 1.0 | 0.00 | 0.00 | 0.00 | 94 | 1016.6 |
| 20260903110052 | 67 | 163 | 0.0 | 5.0 | 0.00 | 0.00 | 0.00 | 94 | 1016.3 |
| 20260903104550 | 67 | 150 | 3.0 | 5.0 | 0.00 | 0.00 | 0.00 | 94 | 1016.2 |
| 20260903103048 | 67 | 159 | 0.0 | 0.0 | 0.00 | 0.00 | 0.00 | 93 | 1016.1 |
| 20260903101547 | 68 | 159 | 0.0 | 2.0 | 0.00 | 0.00 | 0.00 | 93 | 1016.0 |
| 20260903100047 | 68 | 149 | 1.0 | 5.0 | 0.00 | 0.00 | 0.00 | 93 | 1015.8 |
| 20260903094555 | 68 | 149 | 0.0 | 3.0 | 0.00 | 0.00 | 0.00 | 93 | 1015.9 |
| 20260903093050 | 68 | 149 | 1.0 | 3.0 | 0.00 | 0.00 | 0.00 | 92 | 1015.8 |
| 20260903091555 | 69 | 171 | 1.0 | 4.0 | 0.00 | 0.00 | 0.00 | 92 | 1015.8 |
| 20260903090044 | 69 | 170 | 2.0 | 5.0 | 0.00 | 0.00 | 0.00 | 92 | 1015.7 |
| 20260903084543 | 68 | 150 | 2.0 | 6.0 | 0.00 | 0.00 | 0.00 | 93 | 1015.6 |